Regional Weather Roundup
Issued by NWS

Home | Current Version | Previous Version | Text Only | Print | Product List | Glossary On
Versions: 1 2 3 4 5 6 7 8 9 10 11 12 13 14 15 16 17 18 19 20 21 22 23 24 25 26 27 28 29 30 31 32 33 34 35 36 37 38 39 40 41 42 43 44 45 46 47 48 49 50
000
ASCA44 KEWX 281320
RWRMX

LATIN AMERICA AND CARIBBEAN REGIONAL WEATHER ROUNDUP
NATIONAL WEATHER SERVICE AUSTIN/SAN ANTONIO TX
800 AM CDT FRI APR 28 2017

NOTE: "FAIR" INDICATED FEW OR NO CLOUDS BELOW 12,000 FEET WITH NO
SIGNIFICANT WEATHER AND/OR OBSTRUCTIONS TO VISIBILITY.

BAJA CALIFORNIA

CITY           SKY/WX    TMP DP  RH WIND       PRES   REMARKS
LORETO         PTCLDY    68  64  88 CALM      29.79
LA PAZ         MOCLDY    63  52  67 S10       29.88
MEXICALI       MOCLDY    66  43  42 NW8       29.65
S.J. DEL CABO  CLEAR     68  63  83 W7        29.81R
TIJUANA        PTCLDY    54  48  82 CALM      29.79R

NORTHWESTERN MEXICO

CITY           SKY/WX    TMP DP  RH WIND       PRES   REMARKS
CULIACAN       PTCLDY    72  66  83 E6        29.84
DURANGO        CLEAR     54  39  58 S12       30.01
HERMOSILLO     MOCLDY    73  59  60 E10       29.73
LOS MOCHIS     MOCLDY    68  63  83 E7        29.82
OBREGON        MOCLDY    70  64  83 SE13      29.75

NORTHEASTERN MEXICO

CITY           SKY/WX    TMP DP  RH WIND       PRES   REMARKS
MONCLOVA       MOSUNNY   77  61  57 CALM      29.61
MONTERREY      FOG       72  68  88 NW5       29.59R VSB 3/4
REYNOSA        MOSUNNY   73  68  83 SE9G21    29.56
SALTILLO       MOSUNNY   72  52  49 S7        29.89R
TORREON        CLEAR     75  45  33 S10       29.82
CD. VICTORIA   SUNNY     68  68 100 SW9       29.64

WESTERN MEXICO

CITY           SKY/WX    TMP DP  RH WIND       PRES   REMARKS
AGUASCALIENTES MOCLDY    52  18  25 S8        30.14
COLIMA         MOCLDY    68  61  77 CALM      29.95S
DEL BAJIO      MOCLDY    54  28  37 NW5       30.19R
GUADALAJARA    MOCLDY    50  25  37 CALM      30.11
MAZATLAN       PTCLDY    64  64 100 CALM      29.88R
P. VALLARTA    PTCLDY    66  64  94 CALM      29.87S
URUAPAN        CLOUDY    59  46  63 CALM      30.07R
ZACATECAS      CLEAR     48  16  27 S15       30.14R WCI  42

CENTRAL MEXICO

CITY           SKY/WX    TMP DP  RH WIND       PRES   REMARKS
CUERNAVACA     MOSUNNY   68  39  34 NW3       30.01R
MEXICO CITY    PTSUNNY   66  32  28 SW5       30.19R
MORELIA        CLOUDY    55  41  58 CALM      30.13
POZA RICA      PTSUNNY   73  72  94 NW7       29.69R FOG
QUERETARO      MOCLDY    59  36  41 NW9       30.18
S. LUIS POTOSI MOCLDY    61  16  17 SW3       30.07R
TAMPICO        MOSUNNY   75  73  94 CALM      29.66R FOG
TOLUCA         PTSUNNY   48  39  71 W6        30.31R WCI  46

SOUTHERN MEXICO

CITY           SKY/WX    TMP DP  RH WIND       PRES   REMARKS
ACAPULCO       CLEAR     75  72  88 NW5       29.83R
B. DE HUATULCO SUNNY     70  57  64 W9        29.88
OAXACA         CLOUDY    61  52  72 W3        30.11R
P. ESCONDIDO   MOSUNNY   73  70  88 N6        29.93R
VERACRUZ       MOSUNNY   75  68  78 W5        29.69R
ZIHUATANEJO    PTCLDY    72  66  83 E5        29.83R

YUCATAN PENINSULA

CITY           SKY/WX    TMP DP  RH WIND       PRES   REMARKS
CAMPECHE       SUNNY     84  79  84 E14       29.73R HX  96
CANCUN         MOSUNNY   82  79  89 SE17      29.88R HX  93
CHETUMAL       PTSUNNY   84  77  79 SE17      29.79  HX  94
CD. DEL CARMEN PTSUNNY   84  75  74 SE18      29.73  HX  92
COZUMEL        PTSUNNY   82  77  83 SE14      29.85R HX  91
MERIDA         PTSUNNY   82  75  78 E10       29.80R
MINATITLAN     MOSUNNY   75  72  88 CALM      29.71
TAPACHULA      PTSUNNY   77  73  88 CALM      29.81
TUX. GUTIERREZ SUNNY     73  63  68 CALM      29.89R
VILLAHERMOSA   PTSUNNY   77  75  94 CALM      29.76R FOG

CENTRAL AMERICA

CITY           SKY/WX    TMP DP  RH WIND       PRES   REMARKS
BELIZE CITY    PTSUNNY   84  79  84 E6        29.77R HX  96
MANAGUA        MOSUNNY   81  73  78 E7        29.83S

CARIBBEAN

CITY           SKY/WX    TMP DP  RH WIND       PRES   REMARKS
ARUBA          MOSUNNY   86  75  70 E22       29.92R HX  95
CURACAO        MOSUNNY   84  75  74 E17       29.94S HX  92
KINGSTON       MOSUNNY   84  73  70 SE13      29.94S HX  91
NASSAU         MOSUNNY   81  75  83 E14       30.09R
SAN JUAN       MOSUNNY   81  75  83 E13       30.05R
SANTO DOMINGO  MOSUNNY   81  75  83 NE9       30.00S
ST. CROIX      MOSUNNY   82  73  74 E22       30.05R
ST. MAARTEN    LGT RAIN  79  73  83 E17       30.06R
ST. THOMAS     MOSUNNY   82  73  74 E15G22    30.04R

$$





USA.gov is the U.S. government's official web portal to all federal, state and local government web resources and services.